When you browse on this site, cookies collect data to enhance your experience and personalize the content and advertising you see.
Visit our Privacy Policy to learn more. By continuing to use the site, you agree to this use of cookies and data.
  • In Schweiz
  • Länderverzeichnis
  • Für 7 Tage
  • Wassertemperatur
  • Wetterkarte
  • Widgets
  • user-avatar
    Anmelden

    Stündliche Wetter Lankaran

    Heute, 1 Juni, Montag

    Zeit Temperatur Niederschläge Wind Luftdruck Luftfeuchtigkeit
    00:00 +11°C° 0 mm 1 m/S 632 mmHg 70%
    01:00 +9°C° 0 mm 0 m/S 632 mmHg 71%
    02:00 +9°C° 0 mm 0 m/S 631 mmHg 72%
    03:00 +9°C° 0 mm 0 m/S 631 mmHg 71%
    04:00 +10°C° 0 mm 0 m/S 632 mmHg 68%
    05:00 +11°C° 0 mm 0 m/S 632 mmHg 64%
    06:00 +13°C° 0 mm 0 m/S 633 mmHg 61%
    07:00 +15°C° 0 mm 1 m/S 633 mmHg 57%
    08:00 +18°C° 0 mm 1 m/S 634 mmHg 53%
    09:00 +19°C° 0 mm 2 m/S 634 mmHg 49%
    10:00 +20°C° 0 mm 2 m/S 634 mmHg 47%
    11:00 +21°C° 0 mm 2 m/S 635 mmHg 44%
    12:00 +23°C° 0 mm 2 m/S 635 mmHg 41%
    13:00 +23°C° 0 mm 2 m/S 634 mmHg 43%
    14:00 +23°C° 0 mm 2 m/S 634 mmHg 44%
    15:00 +23°C° 0 mm 2 m/S 633 mmHg 45%
    16:00 +21°C° 0 mm 2 m/S 633 mmHg 51%
    17:00 +20°C° 0 mm 2 m/S 632 mmHg 57%
    18:00 +20°C° 0 mm 1 m/S 632 mmHg 63%
    19:00 +19°C° 0 mm 1 m/S 631 mmHg 64%
    20:00 +16°C° 0 mm 1 m/S 631 mmHg 65%
    21:00 +15°C° 0 mm 1 m/S 631 mmHg 66%
    22:00 +15°C° 0 mm 1 m/S 630 mmHg 63%
    23:00 +15°C° 0 mm 1 m/S 630 mmHg 61%

    Morgen, 2 Juni, Dienstag

    Zeit Temperatur Niederschläge Wind Luftdruck Luftfeuchtigkeit
    00:00 +15°C° 0 mm 1 m/S 630 mmHg 58%
    01:00 +15°C° 0 mm 1 m/S 630 mmHg 58%
    02:00 +15°C° 0 mm 1 m/S 630 mmHg 58%
    03:00 +15°C° 0 mm 1 m/S 630 mmHg 58%
    04:00 +16°C° 0 mm 1 m/S 630 mmHg 56%
    05:00 +18°C° 0 mm 1 m/S 631 mmHg 54%
    06:00 +19°C° 0 mm 1 m/S 632 mmHg 52%
    07:00 +21°C° 0 mm 1 m/S 632 mmHg 46%
    08:00 +23°C° 0 mm 2 m/S 633 mmHg 40%
    09:00 +25°C° 0 mm 2 m/S 633 mmHg 33%
    10:00 +26°C° 0 mm 2 m/S 633 mmHg 32%
    11:00 +27°C° 0 mm 3 m/S 633 mmHg 32%
    12:00 +28°C° 0 mm 3 m/S 633 mmHg 31%
    13:00 +28°C° 0 mm 3 m/S 633 mmHg 32%
    14:00 +28°C° 0 mm 3 m/S 632 mmHg 33%
    15:00 +27°C° 0 mm 4 m/S 632 mmHg 34%
    16:00 +25°C° 0 mm 3 m/S 631 mmHg 40%
    17:00 +22°C° 0 mm 3 m/S 630 mmHg 47%
    18:00 +21°C° 0 mm 2 m/S 629 mmHg 53%
    19:00 +20°C° 0 mm 2 m/S 629 mmHg 50%
    20:00 +19°C° 0 mm 2 m/S 629 mmHg 48%
    21:00 +18°C° 0 mm 2 m/S 629 mmHg 45%
    22:00 +18°C° 0 mm 2 m/S 628 mmHg 47%
    23:00 +17°C° 0 mm 2 m/S 628 mmHg 49%

    übermorgen, 3 Juni, Mittwoch

    Zeit Temperatur Niederschläge Wind Luftdruck Luftfeuchtigkeit
    00:00 +16°C° 0 mm 1 m/S 628 mmHg 52%
    01:00 +16°C° 0 mm 1 m/S 628 mmHg 53%
    02:00 +15°C° 0 mm 1 m/S 627 mmHg 55%
    03:00 +15°C° 0 mm 1 m/S 627 mmHg 57%
    04:00 +16°C° 0 mm 1 m/S 628 mmHg 55%
    05:00 +17°C° 0 mm 2 m/S 629 mmHg 53%
    06:00 +18°C° 0 mm 2 m/S 630 mmHg 51%
    07:00 +20°C° 0 mm 2 m/S 630 mmHg 44%
    08:00 +23°C° 0 mm 2 m/S 631 mmHg 38%
    09:00 +25°C° 0 mm 2 m/S 631 mmHg 32%
    10:00 +26°C° 0 mm 3 m/S 632 mmHg 30%
    11:00 +27°C° 0 mm 3 m/S 632 mmHg 28%
    12:00 +28°C° 0 mm 3 m/S 632 mmHg 26%
    13:00 +28°C° 0 mm 3 m/S 632 mmHg 26%
    14:00 +29°C° 0 mm 3 m/S 632 mmHg 26%
    15:00 +29°C° 0 mm 4 m/S 632 mmHg 26%
    16:00 +28°C° 0 mm 3 m/S 631 mmHg 33%
    17:00 +26°C° 0 mm 3 m/S 631 mmHg 39%
    18:00 +25°C° 0 mm 2 m/S 631 mmHg 45%
    19:00 +24°C° 0 mm 2 m/S 631 mmHg 40%
    20:00 +21°C° 0 mm 2 m/S 631 mmHg 35%
    21:00 +20°C° 0 mm 3 m/S 631 mmHg 30%
    22:00 +20°C° 0 mm 3 m/S 631 mmHg 29%
    23:00 +19°C° 0 mm 3 m/S 631 mmHg 29%

    4 Juni, Donnerstag

    Zeit Temperatur Niederschläge Wind Luftdruck Luftfeuchtigkeit
    00:00 +19°C° 0 mm 3 m/S 631 mmHg 29%
    01:00 +18°C° 0 mm 3 m/S 631 mmHg 30%
    02:00 +18°C° 0 mm 3 m/S 631 mmHg 30%
    03:00 +17°C° 0 mm 3 m/S 630 mmHg 31%
    04:00 +17°C° 0 mm 2 m/S 631 mmHg 35%
    05:00 +18°C° 0 mm 2 m/S 632 mmHg 39%
    06:00 +18°C° 0 mm 2 m/S 633 mmHg 43%
    07:00 +20°C° 0 mm 2 m/S 633 mmHg 42%
    08:00 +21°C° 0 mm 2 m/S 634 mmHg 41%
    09:00 +24°C° 0 mm 3 m/S 635 mmHg 40%
    10:00 +22°C° 0 mm 3 m/S 635 mmHg 44%
    11:00 +22°C° 0 mm 3 m/S 634 mmHg 47%
    12:00 +22°C° 0 mm 4 m/S 634 mmHg 51%
    13:00 +21°C° 0 mm 4 m/S 634 mmHg 53%
    14:00 +21°C° 0 mm 3 m/S 633 mmHg 54%
    15:00 +21°C° 0 mm 3 m/S 633 mmHg 56%
    16:00 +19°C° 0 mm 3 m/S 633 mmHg 61%
    17:00 +18°C° 0 mm 2 m/S 633 mmHg 66%
    18:00 +17°C° 0 mm 2 m/S 632 mmHg 72%
    19:00 +16°C° 0 mm 2 m/S 632 mmHg 68%
    20:00 +16°C° 0 mm 1 m/S 632 mmHg 64%
    21:00 +15°C° 0 mm 1 m/S 632 mmHg 61%
    22:00 +15°C° 0 mm 1 m/S 632 mmHg 59%
    23:00 +15°C° 0 mm 2 m/S 632 mmHg 58%

    5 Juni, Freitag

    Zeit Temperatur Niederschläge Wind Luftdruck Luftfeuchtigkeit
    00:00 +15°C° 0 mm 2 m/S 632 mmHg 56%
    01:00 +15°C° 0 mm 2 m/S 632 mmHg 54%
    02:00 +15°C° 0 mm 2 m/S 632 mmHg 52%
    03:00 +14°C° 0 mm 2 m/S 632 mmHg 51%
    04:00 +15°C° 0 mm 2 m/S 633 mmHg 50%
    05:00 +16°C° 0 mm 2 m/S 633 mmHg 50%
    06:00 +18°C° 0 mm 1 m/S 634 mmHg 49%
    07:00 +19°C° 0 mm 2 m/S 635 mmHg 46%
    08:00 +20°C° 0 mm 2 m/S 636 mmHg 43%
    09:00 +23°C° 0 mm 2 m/S 636 mmHg 40%
    10:00 +23°C° 0 mm 2 m/S 636 mmHg 42%
    11:00 +24°C° 0 mm 3 m/S 636 mmHg 44%
    12:00 +25°C° 0 mm 3 m/S 637 mmHg 45%
    13:00 +24°C° 0.1 mm 3 m/S 636 mmHg 49%
    14:00 +23°C° 0.1 mm 4 m/S 636 mmHg 53%
    15:00 +22°C° 0.1 mm 5 m/S 635 mmHg 57%
    16:00 +21°C° 0 mm 4 m/S 635 mmHg 62%
    17:00 +19°C° 0 mm 4 m/S 635 mmHg 68%
    18:00 +17°C° 0 mm 3 m/S 635 mmHg 73%
    19:00 +16°C° 0 mm 3 m/S 635 mmHg 79%
    20:00 +14°C° 0 mm 2 m/S 635 mmHg 85%
    21:00 +12°C° 0 mm 1 m/S 634 mmHg 91%
    22:00 +12°C° 0 mm 1 m/S 635 mmHg 91%
    23:00 +12°C° 0 mm 1 m/S 635 mmHg 91%

    6 Juni, Samstag

    Zeit Temperatur Niederschläge Wind Luftdruck Luftfeuchtigkeit
    00:00 +11°C° 0 mm 1 m/S 635 mmHg 91%
    01:00 +11°C° 0 mm 1 m/S 634 mmHg 91%
    02:00 +11°C° 0 mm 1 m/S 634 mmHg 90%
    03:00 +10°C° 0 mm 1 m/S 634 mmHg 90%
    04:00 +11°C° 0 mm 1 m/S 635 mmHg 85%
    05:00 +12°C° 0 mm 1 m/S 635 mmHg 80%
    06:00 +13°C° 0 mm 1 m/S 636 mmHg 76%
    07:00 +14°C° 0 mm 2 m/S 636 mmHg 70%
    08:00 +16°C° 0 mm 2 m/S 637 mmHg 64%
    09:00 +17°C° 0 mm 3 m/S 637 mmHg 59%
    10:00 +18°C° 0 mm 3 m/S 637 mmHg 58%
    11:00 +18°C° 0 mm 4 m/S 637 mmHg 57%
    12:00 +19°C° 0 mm 4 m/S 637 mmHg 56%
    13:00 +19°C° 0 mm 4 m/S 637 mmHg 57%
    14:00 +19°C° 0 mm 4 m/S 636 mmHg 57%
    15:00 +19°C° 0 mm 3 m/S 636 mmHg 58%
    16:00 +18°C° 0.3 mm 3 m/S 635 mmHg 62%
    17:00 +17°C° 0.3 mm 3 m/S 635 mmHg 67%
    18:00 +16°C° 0.3 mm 2 m/S 635 mmHg 71%
    19:00 +14°C° 0.2 mm 2 m/S 635 mmHg 73%
    20:00 +13°C° 0.2 mm 1 m/S 635 mmHg 74%
    21:00 +12°C° 0.2 mm 1 m/S 635 mmHg 76%
    22:00 +12°C° 0 mm 1 m/S 635 mmHg 74%
    23:00 +12°C° 0 mm 1 m/S 635 mmHg 72%
    Mehr zeigen